Location: Tel Aviv
(32.0670°N, 34.7670°E)
Time: 13:21:42
(UTC+03:00)

Explorer 11/Cluster Stage 4 - Pass Details

Date: 21 September 2024
Orbit: 464 x 1208 km, 28.8° (Epoch: 05 October)

Event Time Altitude Azimuth Distance (km) Brightness Sun altitude
Rises 04:46:36 0° 244° (WSW) 2,862 - -22.2°
Reaches altitude 10° 04:48:48 10° 238° (WSW) 2,057 - -21.7°
Exits shadow 04:51:56 36° 208° (SSW) 1,130 7.0 -21.1°
Maximum altitude 04:53:26 46° 165° (SSE) 1,001 7.0 -20.8°
Drops below altitude 10° 04:59:11 10° 93° (E) 2,549 10.3 -19.6°
Sets 05:02:10 0° 88° (E) 3,625 11.5 -19.0°
